Temperature
23 23 23 23 20 20 23 25 25 26 26 26 26 25 23 22 22 21 21 20 20 20 20 20 19 19 19 19 19 19 19 19 19 19 19 18 18 18 18 18 18 18 18 18 18 19 19 19 19
23 23 23 23 20 21 23 24 25 26 26 26 25 24 23 22 22 21 20 20 20 20 20 20 19 19 19 19 19 19 19 19 19 19 19 18 18 18 18 18 18 18 18 18 18 18 18 19 19
24 23 23 20 22 22 24 24 25 27 27 27 25 25 23 22 22 21 21 20 20 20 20 20 20 19 19 19 19 19 19 19 19 19 18 18 18 18 18 18 18 18 18 18 18 18 18 19 19
24 23 23 21 24 24 25 25 26 26 26 26 25 24 23 22 22 22 21 20 20 20 20 20 20 19 19 19 19 19 19 19 19 19 18 18 18 18 18 18 18 18 18 18 18 18 18 18 18
24 23 21 22 24 26 25 26 27 26 26 25 24 22 22 22 22 21 21 20 20 20 20 20 19 19 19 19 19 19 19 19 18 18 18 18 18 18 18 18 18 18 18 18 18 18 18 18 18
24 21 21 22 24 26 26 28 27 26 25 24 23 22 21 22 21 21 21 21 21 20 20 20 19 19 19 19 19 19 18 18 18 18 18 18 18 18 18 18 18 18 18 18 18 18 18 18 18
23 21 22 23 23 26 27 28 27 25 25 25 24 22 21 21 22 21 21 21 21 20 20 20 20 19 19 19 19 19 18 18 18 18 18 18 18 18 18 18 18 18 18 18 18 18 18 18 18
25 20 22 22 23 26 28 28 28 27 26 26 25 22 21 22 22 21 21 21 21 20 20 20 20 19 19 19 19 19 18 18 18 18 18 18 18 18 18 18 18 18 18 18 18 18 18 18 17
25 20 21 21 23 24 27 28 29 28 27 26 26 25 24 22 22 21 21 21 20 20 20 20 20 20 19 19 19 19 18 18 18 18 18 18 18 18 18 18 18 18 18 18 18 18 18 17 17
23 20 22 22 22 24 26 27 28 27 26 25 25 25 23 22 22 22 21 21 21 21 20 20 20 20 19 19 19 19 19 18 18 18 18 18 18 18 18 18 18 18 18 17 17 17 17 17 17
23 22 22 23 24 25 26 28 29 27 24 25 24 24 23 23 22 22 22 22 22 21 21 20 20 20 20 20 19 19 19 19 18 18 18 17 18 17 18 18 18 18 18 17 17 17 17 17 17
24 24 24 24 26 26 27 28 28 28 27 27 26 25 24 23 23 23 23 22 22 22 21 21 21 20 20 20 20 19 19 19 18 18 17 17 18 17 18 18 18 18 18 17 17 17 17 17 17
24 24 25 26 26 26 27 27 28 28 28 27 26 25 24 24 24 24 24 23 23 22 22 21 21 21 20 20 20 19 19 19 18 18 17 17 17 17 17 18 18 18 18 17 17 17 17 17 17
24 24 25 26 26 26 26 27 27 27 28 27 26 25 25 25 25 24 24 23 23 23 22 22 21 21 21 21 20 20 20 19 19 18 18 17 17 17 17 17 17 17 17 17 17 17 17 17 17
25 24 24 24 25 25 25 25 25 27 27 26 26 26 26 26 25 25 25 24 24 23 23 22 22 22 21 21 21 20 20 19 19 19 18 18 17 17 17 17 17 17 17 17 17 17 17 17 17
23 23 22 23 23 24 24 23 24 26 26 26 26 26 26 26 26 26 25 25 24 24 23 23 22 22 22 21 21 21 20 20 19 19 18 18 18 18 17 17 17 17 17 17 17 17 17 17 17
21 21 21 22 22 22 23 22 23 24 24 25 25 26 26 26 26 26 26 25 25 24 24 23 23 22 22 21 21 21 20 20 20 19 19 18 18 18 18 18 18 17 17 17 17 17 17 17 17
20 20 21 21 21 21 21 21 21 23 23 23 24 25 25 26 26 26 26 26 25 25 24 23 23 22 22 21 21 20 20 20 20 19 19 18 18 18 18 18 18 18 17 17 17 17 17 17 17
21 21 20 21 21 21 20 20 21 22 22 22 23 24 25 25 26 26 26 26 25 25 24 23 23 22 22 21 21 20 20 20 20 19 19 19 18 18 18 18 18 18 17 17 17 17 17 17 17
21 20 20 20 20 21 20 19 20 20 21 22 23 23 24 25 26 26 26 26 25 25 24 24 23 22 22 21 21 21 20 20 19 19 19 19 18 18 18 18 18 18 17 17 17 17 17 17 17
21 20 20 20 20 20 19 18 19 20 21 21 22 23 24 24 25 25 25 25 25 25 24 24 23 22 22 21 21 20 20 19 19 19 19 19 18 18 18 18 18 18 18 17 17 17 17 17 17
20 21 20 20 18 17 18 16 17 18 18 19 20 21 23 24 24 24 24 24 24 24 24 23 23 22 21 21 20 20 20 19 19 19 19 18 18 18 18 18 18 18 17 17 17 17 17 17 17
20 20 20 19 18 17 17 16 17 17 17 18 19 20 22 23 23 23 24 24 23 23 23 23 22 22 21 21 20 20 20 19 19 19 18 18 18 18 18 18 17 17 17 17 17 17 17 17 17
20 19 18 16 15 16 17 16 16 16 16 17 18 19 20 21 22 23 23 23 22 22 22 22 22 21 21 20 20 20 19 19 19 18 18 18 18 18 17 17 17 17 17 17 17 16 16 16 17
18 17 16 16 15 15 17 17 16 16 16 16 16 17 18 20 20 21 22 22 22 22 22 22 22 21 21 20 20 20 19 19 19 18 18 18 17 17 17 17 17 17 17 17 16 16 16 16 16
18 17 16 15 15 15 17 17 16 16 16 16 16 16 16 17 19 19 20 21 21 21 21 22 22 21 21 20 20 19 19 19 18 18 18 17 17 17 17 17 16 16 16 16 16 16 16 16 15
17 16 16 15 15 15 16 16 16 16 16 16 15 15 15 16 17 18 19 20 20 21 21 21 21 21 21 20 20 19 19 19 18 18 18 17 17 17 17 16 16 16 16 16 16 16 15 15 15
16 15 13 14 15 15 15 15 14 14 14 15 15 15 15 15 16 17 17 19 20 20 21 21 21 21 21 20 20 20 19 19 18 18 18 17 17 17 16 16 16 16 16 16 15 15 15 15 15
14 14 13 13 13 14 14 14 14 13 14 14 14 15 15 15 16 16 17 18 19 20 20 20 20 20 20 20 20 19 19 19 18 18 18 17 17 17 16 16 16 16 16 15 15 15 15 15 15
14 13 13 13 13 13 13 13 14 13 14 14 14 14 15 16 16 17 17 18 19 19 20 20 20 20 20 20 19 19 19 19 18 18 18 17 17 16 16 16 16 16 16 15 15 15 15 15 15
Wind_Speed
7 3 3 2 5 5 2 2 5 3 4 5 9 11 8 5 4 4 5 14 16 15 14 16 16 15 14 13 13 13 13 13 13 13 13 13 13 12 12 11 11 11 11 11 12 11 11 11 10
3 2 3 4 5 3 0 3 6 4 8 11 10 8 7 5 5 7 7 15 18 16 15 15 16 14 14 13 13 13 13 13 12 12 12 13 13 12 11 11 10 10 10 11 11 11 11 11 11
3 1 2 4 2 4 4 5 6 5 8 8 6 5 6 6 5 6 12 18 16 14 14 15 16 15 14 13 12 12 12 12 12 12 12 12 12 11 11 10 10 10 10 10 10 10 10 10 10
1 3 4 4 2 5 7 6 6 7 7 6 7 6 5 4 5 10 19 18 16 14 14 16 16 15 14 13 12 12 11 11 11 11 11 11 11 11 11 10 10 10 10 9 9 9 9 9 9
2 4 5 3 3 1 3 5 6 7 6 5 8 6 4 3 12 19 19 17 16 13 13 16 16 15 14 13 13 12 12 11 11 11 11 11 11 11 10 10 10 9 9 8 7 7 7 7 8
4 4 4 4 3 0 2 5 7 8 8 8 9 7 3 5 13 16 17 15 15 15 13 15 16 15 14 13 13 12 12 12 12 12 12 12 11 11 10 9 9 9 8 7 6 5 5 5 6
4 4 2 4 4 1 3 6 8 8 9 8 10 7 6 6 10 15 15 14 14 13 11 11 13 14 14 14 13 13 13 13 13 13 12 12 11 11 10 9 9 8 7 7 5 4 3 4 5
5 4 2 4 3 2 0 3 7 9 7 9 8 9 8 10 11 14 14 13 13 11 11 10 11 12 12 13 14 14 14 14 14 13 13 13 12 11 10 9 8 8 7 6 5 3 2 2 3
4 5 1 3 4 5 2 3 2 4 6 5 5 7 12 16 14 14 11 9 11 11 10 10 9 10 12 12 13 14 14 14 14 13 14 12 10 10 9 9 8 8 7 6 4 2 0 2 4
4 3 4 4 5 5 5 1 3 5 6 5 7 9 15 17 16 17 16 14 14 13 12 11 11 10 10 11 11 11 12 12 12 11 11 10 10 9 9 10 9 8 7 6 4 2 2 3 5
4 5 4 6 9 7 5 3 1 7 5 10 16 17 18 17 17 18 18 17 17 16 15 14 12 11 9 6 9 8 9 10 11 11 12 10 8 7 7 7 7 6 6 4 3 3 3 3 2
2 4 4 5 7 5 4 3 1 4 8 15 20 23 22 21 19 19 19 17 15 15 16 16 15 13 10 8 7 8 6 7 7 11 13 9 5 5 5 5 6 5 5 4 3 2 5 5 3
3 4 4 4 5 6 6 5 4 4 4 13 18 19 21 21 20 19 19 17 15 17 17 17 16 15 12 10 8 8 6 7 10 11 13 12 6 6 5 4 6 6 6 4 2 3 3 3 5
4 5 6 5 5 4 5 7 4 6 2 11 17 18 19 20 20 16 16 17 17 18 18 18 18 16 14 12 10 9 8 9 10 10 13 15 12 7 5 5 4 5 7 5 3 3 3 4 5
3 5 7 5 4 4 4 8 7 8 3 7 13 15 16 17 17 19 21 20 20 20 19 19 19 18 16 14 12 10 9 10 8 9 14 16 16 12 8 6 6 6 8 5 4 4 5 5 6
5 4 4 6 5 6 2 9 9 6 3 5 8 10 12 14 16 18 20 19 19 18 19 19 18 18 17 14 12 9 8 8 7 10 12 15 17 16 9 7 7 8 7 5 5 4 4 5 5
4 3 5 6 5 5 2 8 8 6 5 5 6 8 9 11 13 15 18 20 19 19 20 20 17 18 17 14 11 9 8 9 8 9 9 11 14 15 10 7 7 9 5 4 5 3 4 4 4
4 4 5 5 5 4 3 7 9 7 4 6 6 6 6 7 11 12 15 17 18 18 18 18 15 16 14 10 8 6 7 7 6 6 7 9 10 12 10 6 7 7 6 5 5 5 3 4 4
4 4 7 6 3 3 6 9 11 9 6 7 7 5 6 6 5 5 11 14 15 14 14 14 13 13 11 9 8 7 7 6 6 5 7 8 9 10 8 7 7 7 7 7 7 5 5 3 2
3 4 5 5 4 4 7 10 10 9 6 7 7 7 7 6 4 1 6 10 13 14 13 13 12 12 12 10 8 5 5 4 4 4 4 7 8 9 8 8 7 7 6 7 7 5 4 3 3
4 4 5 5 4 4 5 9 8 7 6 7 6 7 7 7 6 5 7 9 11 11 12 12 11 11 10 9 6 5 4 3 2 3 4 4 6 7 6 7 7 7 8 8 7 7 7 5 2
6 6 5 3 1 4 2 6 9 7 9 9 8 6 6 7 6 6 8 10 10 10 10 11 10 10 9 9 9 9 6 6 6 5 4 5 5 5 6 6 7 7 7 8 8 7 5 7 4
6 4 3 2 1 3 3 3 8 8 11 14 13 8 5 5 8 9 9 11 10 10 9 10 10 9 8 8 10 9 6 5 4 4 5 5 5 5 5 6 6 7 6 7 7 6 6 6 6
1 4 5 5 4 2 5 4 5 7 12 17 17 14 8 2 4 7 9 10 9 9 9 10 11 8 8 8 8 8 8 6 5 5 6 5 4 4 6 5 6 7 7 8 8 8 8 6 6
6 5 4 5 2 5 3 2 1 7 12 15 18 18 12 6 2 3 7 9 9 10 9 9 10 8 7 7 7 7 8 7 7 6 6 5 4 4 6 6 7 6 7 8 7 7 7 7 7
3 3 3 4 4 4 3 1 2 8 12 15 16 17 17 13 8 5 5 6 7 7 6 7 8 7 7 7 6 6 6 5 4 5 5 6 5 5 6 7 7 7 7 8 7 7 7 7 7
5 2 2 3 2 3 4 0 2 14 18 19 20 19 18 15 12 10 7 4 4 5 5 6 6 6 6 6 5 5 6 6 5 5 4 4 4 4 5 6 6 7 7 8 8 6 7 7 7
3 1 4 2 1 3 3 4 7 15 17 19 19 18 15 12 11 10 8 6 5 2 1 3 5 6 5 6 5 5 6 6 5 5 5 5 5 4 5 6 6 6 6 7 7 6 6 7 7
5 4 2 1 1 1 1 2 6 10 12 14 15 14 12 10 8 7 6 4 3 3 3 4 4 5 5 5 5 5 5 5 5 4 5 5 4 5 5 6 6 6 6 6 6 6 7 7 7
4 2 1 2 0 0 1 1 6 9 10 11 12 12 11 9 6 4 4 5 5 4 4 4 3 4 5 5 5 5 5 4 5 5 4 5 5 5 5 5 6 6 6 6 7 7 7 7 7
Wind_Direction
291 298 119 82 51 47 90 154 133 96 74 75 89 94 96 92 110 138 152 151 142 151 159 157 154 148 141 136 131 129 128 128 129 128 126 124 121 118 112 107 101 97 94 90 87 84 84 86 88
311 316 106 62 73 70 0 168 117 111 124 118 94 102 95 85 101 112 124 144 145 150 155 157 156 151 145 140 135 132 130 130 131 132 132 131 127 123 118 113 108 103 100 97 93 89 85 84 83
291 249 89 66 111 165 175 193 149 117 118 121 96 76 95 123 119 127 145 142 144 149 153 157 157 154 150 146 142 138 136 135 135 136 137 136 133 128 123 118 112 108 104 101 98 95 88 82 78
8 42 56 63 251 208 173 194 156 109 90 91 99 64 58 125 136 133 141 143 146 150 153 158 158 157 155 152 149 145 143 142 142 142 141 140 137 132 127 122 118 114 111 108 104 98 90 80 73
92 68 41 349 285 220 157 160 130 119 114 99 96 82 43 50 117 133 144 146 146 148 153 159 158 158 157 156 154 152 150 149 148 146 144 144 143 139 133 127 123 121 120 116 110 100 89 79 69
55 61 50 332 313 252 126 128 113 103 114 115 108 110 122 140 130 142 147 148 148 149 153 157 159 159 159 159 158 157 155 154 152 150 149 149 146 142 138 133 130 127 126 128 124 112 92 76 67
94 70 357 315 310 5 147 124 114 124 143 153 135 112 141 173 152 146 147 146 147 150 152 152 158 160 161 162 162 161 160 159 158 156 154 152 149 146 142 140 139 137 138 141 140 130 96 72 62
121 92 7 337 317 293 127 113 136 137 145 143 133 136 164 189 159 145 145 146 148 151 156 155 156 157 158 162 165 165 164 163 162 161 158 157 154 152 149 147 149 150 152 153 153 148 103 69 51
88 81 39 323 312 302 325 101 142 125 121 130 136 152 166 163 150 142 145 146 154 160 163 163 162 160 159 161 168 167 167 167 164 163 163 158 153 154 153 156 161 162 162 161 164 172 15 16 27
99 129 190 214 252 268 286 203 138 94 99 92 98 121 149 156 156 157 161 166 171 173 175 172 171 168 165 169 162 163 166 166 163 165 161 157 161 168 168 171 171 174 174 176 186 213 295 343 12
156 182 203 234 250 259 268 272 148 128 152 167 157 157 161 166 168 170 174 177 180 178 177 177 176 174 172 164 158 164 163 166 169 172 168 167 174 181 173 176 180 184 190 196 218 238 268 283 328
235 232 208 231 257 267 265 274 273 188 199 179 168 165 168 174 178 180 181 184 181 177 181 178 177 176 176 166 168 170 170 176 180 185 181 173 169 172 178 186 194 201 208 212 228 232 245 240 230
268 259 266 268 276 274 279 276 259 254 206 162 169 171 176 181 185 187 186 183 181 182 182 178 178 177 175 169 173 177 180 186 190 190 189 182 173 180 185 193 204 215 218 213 210 218 212 180 161
258 287 290 287 292 294 279 280 278 269 223 162 175 183 188 188 188 186 187 187 186 186 183 179 179 178 176 178 179 182 187 191 193 194 192 188 185 184 184 191 205 221 223 221 203 181 146 124 129
306 323 319 307 300 292 308 292 261 262 247 183 187 195 198 199 190 188 190 189 188 187 184 181 181 180 180 183 184 183 190 191 195 198 194 191 189 190 186 189 199 216 217 197 163 143 116 111 117
340 340 306 306 343 315 288 262 268 310 314 236 215 209 208 212 203 196 191 189 186 184 182 183 184 182 184 185 187 185 187 190 196 198 192 190 190 189 183 186 194 199 187 165 148 140 114 111 120
354 305 284 303 351 337 300 261 284 317 334 288 252 229 221 219 217 206 193 188 185 182 181 184 184 183 185 184 185 182 181 186 190 193 192 191 189 186 181 185 190 180 167 164 158 142 132 132 133
259 268 281 288 312 330 307 277 291 297 311 296 287 274 260 233 225 212 196 188 184 182 180 181 180 179 179 174 172 170 172 183 186 188 191 187 187 183 181 182 185 169 163 165 155 144 130 139 147
232 254 272 271 282 302 277 278 283 285 284 283 286 286 276 269 266 216 190 182 176 176 174 175 173 172 168 168 168 171 180 183 188 194 185 181 183 182 183 186 181 173 170 170 155 137 133 129 121
239 271 282 285 292 294 282 280 275 269 259 253 258 255 249 252 271 187 157 162 164 170 172 170 169 168 170 174 170 166 158 160 175 187 186 183 178 182 190 182 181 179 168 160 156 143 136 143 140
259 238 241 263 315 335 321 304 298 302 313 310 283 252 233 231 214 165 139 143 144 150 160 167 163 163 164 156 135 117 97 88 125 189 201 195 186 186 182 177 175 178 171 175 172 162 153 160 170
249 237 215 225 341 298 346 300 299 312 331 334 321 291 240 218 191 154 137 129 129 135 142 146 147 151 154 149 153 156 164 177 195 188 194 195 188 186 185 178 175 177 177 176 179 173 164 154 165
224 222 198 196 166 300 283 235 295 345 348 339 332 317 273 212 179 160 144 129 125 131 136 137 137 142 152 155 162 165 172 182 174 170 184 196 197 193 188 180 173 177 179 179 177 178 176 168 168
95 51 33 46 74 297 252 205 311 1 349 347 348 348 337 296 178 155 136 127 128 128 129 132 134 140 148 151 158 166 173 177 175 185 190 196 199 197 196 184 182 181 181 181 182 185 186 185 176
30 60 12 346 355 253 265 180 14 0 4 3 0 359 -0 6 32 118 121 123 127 130 133 135 136 143 151 154 164 175 179 182 189 191 192 189 194 199 198 188 189 186 186 185 181 184 190 188 187
317 133 178 232 244 282 311 208 96 10 6 7 8 10 16 18 27 52 90 107 114 118 133 141 145 153 160 165 178 185 182 182 192 192 187 194 200 205 193 186 188 187 184 187 186 190 195 195 200
356 338 221 180 252 273 279 348 28 2 5 5 5 8 11 10 19 23 32 58 111 130 152 155 158 168 173 175 184 193 188 185 192 195 190 196 201 200 187 183 183 184 183 183 181 195 200 198 204
24 20 53 82 224 260 315 29 355 347 347 350 352 355 357 2 10 15 15 13 11 8 198 169 171 182 186 180 183 184 183 182 185 181 190 196 196 187 171 177 180 181 181 180 183 190 196 196 202
12 34 44 95 144 167 336 22 354 330 331 335 336 335 336 352 1 1 353 349 337 312 276 240 206 196 194 188 179 165 170 171 169 174 190 188 182 178 178 179 179 180 180 178 181 188 187 196 203
58 43 83 130 101 108 130 352 336 324 324 332 331 334 336 337 337 325 303 283 274 266 266 268 245 218 212 198 179 173 169 165 172 183 187 178 180 188 187 176 174 181 180 179 183 190 192 198 203
Height
1502 1500 1499 1499 1502 1512 1511 1503 1496 1494 1494 1494 1493 1495 1500 1504 1508 1514 1511 1511 1514 1515 1517 1519 1521 1523 1524 1525 1526 1527 1528 1529 1529 1530 1531 1531 1532 1532 1533 1533 1533 1534 1534 1534 1534 1534 1534 1534 1534
1501 1500 1500 1499 1509 1523 1514 1500 1495 1492 1493 1494 1496 1498 1500 1504 1505 1507 1509 1512 1514 1516 1517 1519 1521 1522 1524 1525 1526 1527 1528 1529 1529 1530 1531 1532 1532 1533 1533 1533 1534 1534 1534 1535 1535 1535 1535 1535 1535
1500 1499 1500 1502 1511 1517 1509 1498 1493 1491 1492 1492 1497 1499 1502 1505 1506 1506 1508 1512 1514 1516 1518 1519 1521 1522 1523 1525 1526 1527 1528 1529 1530 1530 1531 1532 1532 1533 1533 1534 1534 1535 1535 1535 1535 1536 1536 1536 1536
1500 1500 1500 1506 1508 1501 1496 1493 1490 1491 1493 1494 1496 1501 1504 1506 1506 1506 1509 1512 1514 1516 1518 1519 1520 1522 1523 1524 1525 1527 1528 1529 1529 1530 1531 1532 1532 1533 1533 1534 1534 1535 1535 1536 1536 1536 1537 1537 1537
1499 1499 1505 1510 1504 1495 1490 1489 1489 1491 1494 1496 1497 1503 1506 1507 1506 1507 1510 1513 1514 1516 1518 1519 1520 1521 1522 1524 1525 1526 1527 1528 1529 1530 1531 1532 1532 1533 1534 1534 1535 1535 1536 1536 1537 1537 1537 1538 1538
1500 1501 1512 1516 1504 1494 1490 1488 1489 1492 1495 1497 1499 1503 1508 1508 1508 1509 1511 1513 1515 1516 1517 1519 1520 1521 1522 1523 1525 1526 1527 1528 1529 1530 1531 1532 1533 1533 1534 1534 1535 1535 1536 1537 1537 1538 1538 1538 1538
1501 1505 1512 1511 1507 1497 1490 1488 1489 1492 1494 1496 1498 1503 1507 1509 1509 1510 1512 1514 1515 1516 1517 1518 1519 1521 1522 1523 1524 1525 1527 1528 1529 1530 1531 1532 1533 1533 1534 1534 1535 1536 1537 1537 1538 1538 1538 1538 1539
1500 1506 1512 1512 1508 1499 1490 1489 1489 1490 1493 1496 1496 1499 1504 1507 1509 1510 1512 1514 1515 1516 1517 1518 1519 1520 1521 1522 1524 1525 1526 1528 1529 1530 1531 1532 1533 1533 1534 1535 1535 1536 1537 1538 1538 1538 1538 1539 1539
1501 1511 1518 1513 1508 1500 1491 1489 1490 1490 1492 1494 1495 1496 1499 1504 1508 1510 1512 1514 1515 1516 1517 1517 1518 1519 1520 1522 1523 1525 1526 1527 1529 1530 1531 1532 1533 1534 1534 1535 1536 1537 1538 1539 1539 1539 1539 1540 1540
1501 1513 1511 1506 1502 1498 1493 1490 1489 1491 1492 1494 1496 1498 1500 1503 1505 1507 1509 1511 1512 1514 1515 1517 1517 1518 1519 1521 1522 1524 1525 1527 1528 1530 1531 1532 1533 1534 1535 1535 1536 1537 1539 1540 1540 1541 1541 1541 1542
1499 1505 1503 1500 1497 1495 1493 1490 1488 1490 1494 1493 1493 1496 1499 1501 1503 1504 1506 1507 1509 1511 1513 1515 1516 1517 1519 1520 1521 1523 1524 1526 1528 1529 1531 1532 1533 1534 1535 1536 1537 1538 1539 1540 1541 1542 1542 1543 1543
1498 1498 1497 1496 1494 1493 1491 1489 1488 1487 1488 1489 1489 1491 1495 1497 1499 1501 1503 1505 1507 1509 1511 1513 1514 1516 1517 1519 1520 1522 1523 1525 1527 1528 1530 1532 1533 1534 1535 1536 1537 1539 1540 1541 1542 1542 1542 1543 1543
1496 1495 1494 1493 1492 1491 1489 1488 1487 1486 1486 1487 1489 1491 1492 1493 1495 1498 1500 1502 1504 1506 1508 1510 1512 1514 1516 1517 1519 1520 1522 1524 1526 1528 1529 1531 1532 1534 1535 1537 1538 1539 1540 1541 1542 1542 1542 1543 1543
1495 1494 1492 1491 1490 1489 1488 1486 1486 1484 1485 1486 1487 1488 1489 1490 1491 1494 1497 1499 1501 1503 1505 1507 1509 1512 1514 1515 1517 1519 1521 1523 1525 1526 1528 1530 1532 1534 1535 1537 1538 1539 1541 1542 1542 1542 1543 1543 1544
1494 1494 1492 1489 1488 1487 1488 1488 1484 1483 1484 1484 1485 1486 1486 1487 1488 1489 1491 1493 1496 1499 1501 1504 1506 1509 1511 1514 1516 1517 1519 1521 1523 1525 1527 1528 1530 1532 1535 1537 1538 1539 1541 1541 1542 1543 1544 1544 1545
1494 1498 1502 1493 1490 1488 1492 1496 1483 1482 1482 1482 1482 1483 1484 1484 1484 1485 1487 1489 1492 1495 1498 1501 1503 1506 1509 1511 1513 1515 1517 1519 1521 1523 1525 1527 1529 1531 1533 1535 1537 1538 1540 1541 1542 1543 1544 1545 1545
1503 1509 1506 1498 1492 1490 1491 1493 1483 1482 1481 1480 1479 1479 1480 1480 1481 1482 1483 1485 1488 1491 1494 1497 1500 1503 1505 1508 1511 1514 1516 1517 1519 1521 1523 1525 1527 1529 1531 1533 1535 1537 1539 1540 1542 1543 1544 1545 1545
1512 1510 1506 1503 1495 1492 1493 1491 1483 1480 1480 1478 1477 1476 1477 1476 1476 1477 1479 1481 1485 1488 1491 1494 1497 1500 1503 1506 1509 1512 1514 1515 1517 1519 1521 1523 1525 1527 1529 1531 1533 1535 1537 1539 1540 1542 1543 1544 1545
1502 1505 1506 1500 1493 1493 1493 1490 1483 1478 1477 1476 1474 1473 1474 1473 1473 1474 1475 1478 1481 1485 1488 1491 1494 1497 1500 1503 1506 1508 1510 1512 1515 1517 1519 1521 1523 1525 1526 1528 1531 1532 1534 1536 1538 1540 1541 1543 1544
1499 1503 1504 1498 1493 1492 1493 1489 1480 1476 1474 1473 1471 1470 1470 1470 1470 1471 1472 1474 1477 1481 1485 1488 1492 1495 1497 1500 1503 1506 1508 1511 1513 1515 1517 1518 1520 1522 1523 1526 1528 1530 1532 1533 1535 1537 1539 1541 1542
1498 1501 1501 1500 1494 1492 1495 1493 1483 1475 1473 1470 1468 1466 1466 1467 1467 1468 1469 1471 1474 1478 1482 1486 1489 1493 1496 1498 1501 1504 1506 1508 1510 1511 1513 1515 1517 1519 1521 1522 1525 1526 1528 1530 1532 1534 1536 1537 1539
1500 1492 1493 1495 1502 1508 1502 1512 1491 1481 1476 1471 1467 1464 1462 1463 1464 1466 1468 1470 1473 1477 1481 1485 1488 1491 1494 1497 1499 1501 1503 1504 1506 1508 1510 1512 1514 1516 1517 1519 1521 1523 1524 1526 1528 1530 1532 1534 1536
1492 1488 1491 1494 1501 1508 1505 1510 1499 1487 1484 1477 1470 1464 1460 1460 1461 1464 1466 1469 1473 1477 1481 1484 1487 1490 1492 1495 1497 1499 1500 1502 1504 1505 1507 1508 1510 1512 1514 1515 1517 1519 1520 1522 1524 1526 1528 1530 1532
1488 1492 1496 1502 1508 1518 1506 1510 1508 1500 1494 1484 1474 1467 1461 1460 1461 1462 1465 1468 1472 1476 1480 1482 1485 1488 1490 1493 1494 1496 1498 1499 1501 1502 1503 1505 1507 1508 1510 1512 1513 1515 1516 1518 1520 1521 1524 1526 1528
1494 1506 1518 1519 1523 1519 1501 1505 1510 1501 1494 1488 1481 1472 1465 1462 1463 1464 1465 1467 1471 1475 1480 1483 1484 1487 1489 1491 1492 1494 1495 1497 1498 1499 1501 1502 1504 1505 1506 1508 1509 1510 1512 1514 1515 1517 1519 1521 1523
1500 1505 1520 1527 1526 1516 1502 1505 1506 1499 1494 1488 1482 1476 1469 1466 1466 1467 1467 1469 1472 1476 1480 1482 1484 1486 1488 1489 1491 1492 1494 1495 1497 1498 1499 1500 1501 1502 1503 1504 1506 1507 1508 1509 1511 1513 1514 1516 1518
1504 1507 1506 1514 1515 1517 1510 1503 1500 1495 1491 1488 1485 1479 1475 1473 1472 1471 1471 1472 1474 1477 1480 1482 1484 1485 1487 1488 1490 1491 1493 1494 1495 1496 1497 1498 1499 1500 1500 1501 1502 1503 1504 1505 1506 1508 1510 1511 1513
1505 1507 1513 1517 1521 1522 1514 1513 1514 1505 1499 1492 1488 1484 1481 1478 1476 1476 1475 1476 1477 1479 1481 1483 1484 1485 1487 1488 1489 1490 1492 1493 1494 1495 1496 1497 1497 1498 1498 1499 1500 1500 1501 1502 1503 1504 1506 1508 1509
1511 1513 1515 1518 1518 1522 1524 1522 1513 1510 1504 1498 1493 1489 1484 1480 1478 1478 1478 1478 1479 1480 1482 1483 1484 1485 1487 1488 1489 1490 1491 1492 1493 1494 1495 1495 1496 1496 1497 1498 1498 1499 1499 1500 1501 1502 1503 1504 1505
1512 1514 1516 1523 1522 1521 1524 1526 1513 1510 1505 1500 1495 1489 1484 1481 1479 1479 1479 1478 1479 1480 1481 1482 1483 1485 1487 1488 1489 1489 1490 1491 1492 1493 1493 1494 1495 1495 1496 1496 1497 1497 1498 1498 1499 1500 1500 1501 1502